Regional Weather Roundup
Issued by NWS

Home | Current Version | Previous Version | Graphics & Text | Print | Product List | Glossary On
Versions: 1 2 3 4 5 6 7 8 9 10 11 12 13 14 15 16 17 18 19 20 21 22 23 24 25 26 27 28 29 30 31 32 33 34 35 36 37 38 39 40 41 42 43 44 45 46 47 48 49 50
000
ASUS43 KLSX 201107
RWRMO

WEATHER SUMMARY FOR MISSOURI
NATIONAL WEATHER SERVICE SPRINGFIELD MO
600 AM CDT WED AUG 20 2014

NOTE: "FAIR" INDICATES FEW OR NO CLOUDS BELOW 12,000 FEET WITH NO
       SIGNIFICANT WEATHER AND/OR OBSTRUCTIONS TO VISIBILITY.
       CURRENT SKY AND/OR WEATHER CONDITIONS ARE NOT AVAILABLE FOR
       CHILLICOTHE AND FARMINGTON.

MOZ001>031-035>038-043-044-053-054-201200-
...NORTHERN AND WESTERN MISSOURI...

CITY           SKY/WX    TMP DP  RH WIND       PRES   REMARKS
KANSAS CTY INT MOCLDY    75  69  81 S9        29.83R
KANSAS C DTWN  MOCLDY    81  68  64 SW9       29.82R
LEE`S SUMMIT   MOCLDY    75  70  84 SW7       29.85R
ST JOSEPH      CLOUDY    74  70  87 S5        29.82R
CHILLICOTHE      N/A     74  71  91 CALM      29.84R
KIRKSVILLE     CLOUDY    71  70  96 S6        29.85F

$$
MOZ066>068-077>081-088>096-101>105-201200-
...SOUTHWEST MISSOURI...

CITY           SKY/WX    TMP DP  RH WIND       PRES   REMARKS
SPRINGFIELD    CLEAR     72  68  87 S7        29.92S
JOPLIN         CLEAR     74  70  87 S8        29.90S

$$
MOZ032>034-039>042-045>050-055>058-069>072-201200-
...CENTRAL MISSOURI...

CITY           SKY/WX    TMP DP  RH WIND       PRES   REMARKS
COLUMBIA       CLEAR     71  69  93 S7        29.88R
JEFFERSON CITY CLEAR     70  68  93 SE3       29.87R
ROLLA          CLEAR     71  67  87 SW8       29.90R
SEDALIA        PTCLDY    76  70  82 SW9       29.87R
WHITEMAN AFB   MOCLDY    72  63  74 S6        29.86R
OSAGE BEACH    CLEAR     72  66  83 CALM      29.89R

$$
MOZ051-052-059>065-201200-
...EAST CENTRAL MISSOURI...

CITY           SKY/WX    TMP DP  RH WIND       PRES   REMARKS
ST LOUIS INTL  MOCLDY    75  70  84 CALM      29.88R
SPIRIT OF STL  PTCLDY    69  68  96 CALM      29.87R
ST CHARLES     MOCLDY    70  68  93 CALM      29.86R

$$
MOZ072>076-082>087-097>100-106>115-201200-
...SOUTH CENTRAL AND SOUTHEAST MISSOURI...

CITY           SKY/WX    TMP DP  RH WIND       PRES   REMARKS
CAPE GIRARDEAU CLEAR     70  69  97 N5        29.89R
FARMINGTON     CLEAR     70  66  88 CALM      29.93S
POPLAR BLUFF   CLEAR     71  67  87 CALM      29.89R
WEST PLAINS    CLEAR     73  69  87 W7        29.95R

$$


USA.gov is the U.S. government's official web portal to all federal, state and local government web resources and services.